Regional Weather Roundup
Issued by NWS

Home | Current Version | Previous Version | Text Only | Print | Product List | Glossary On
Versions: 1 2 3 4 5 6 7 8 9 10 11 12 13 14 15 16 17 18 19 20 21 22 23 24 25 26 27
000
ASUS44 KJAN 240410
RWRMS

MISSISSIPPI HOURLY WEATHER ROUNDUP
NATIONAL WEATHER SERVICE JACKSON MS
1100 PM CDT TUE MAY 23 2017

NOTE: "FAIR: INDICATES FEW OR NO CLOUDS BELOW 12,000 FEET WITH NO
SIGNIFICANT WEATHER AND/OR OBSTRUCTIONS TO VISIBILITY.

MSZ001>002-007>008-010>013-018>021-025>028-034>036-240500-
NORTHWEST MISSISSIPPI

CITY           SKY/WX    TMP DP  RH WIND       PRES   REMARKS
BATESVILLE     MOCLDY    66  55  68 NW9       29.70R
CLARKSDALE       N/A     64  64 100 MISG      29.72R FOG
CLEVELAND      CLOUDY    67  62  81 W8        29.69F
GREENWOOD      LGT RAIN  67  64  90 SW5       29.70R
GREENVILLE     CLOUDY    67  62  84 SW10      29.71R
OXFORD         FAIR      66  57  72 NW6       29.70S
TUNICA         RAIN      61  59  94 W6        29.72F
WINONA         LGT RAIN  65  65  97 CALM      29.71R
$$

MSZ003>006-009-014>017-022>024-029>033-037>039-240500-
NORTHEAST MISSISSIPPI

CITY           SKY/WX    TMP DP  RH WIND       PRES   REMARKS
COLUMBUS AFB   PTCLDY    64  64 100 SW7       29.69R
CORINTH        MOCLDY    64  61  88 CALM      29.66F
GOLDN TRIANGLE PTCLDY    64  59  82 SW5       29.66S
STARKVILLE     FAIR      63  63 100 CALM      29.71S
TUPELO         PTCLDY    65  61  87 CALM      29.68S
$$

MSZ040-058-240500-
CENTRAL MISSISSIPPI

CITY           SKY/WX    TMP DP  RH WIND       PRES   REMARKS
JACKSON INTL   PTCLDY    65  63  93 CALM      29.73S
JACKSON HAWKNS MOCLDY    65  63  93 CALM      29.74R
MADISON        FAIR      63  63 100 CALM      29.73R
MERIDIAN KEY   CLOUDY    69  67  93 SW5       29.74R
MERIDIAN NAS   MOCLDY    70  64  81 W5        29.72R
VICKSBURG VKS  MOCLDY    68  63  83 NW14      29.72R
$$

MSZ059>079-240500-
SOUTH MISSISSIPPI

CITY           SKY/WX    TMP DP  RH WIND       PRES   REMARKS
COLUMBIA       FAIR      64  64 100 CALM      29.78S
HATTIESBURG    MOCLDY    69  66  90 CALM      29.75R
LAUREL         CLOUDY    67  67 100 CALM      29.75R
MCCOMB         CLOUDY    66  64  93 CALM      29.76R
NATCHEZ        MOCLDY    68  65  90 W8        29.77R
PINE BELT      NOT AVBL
$$

MSZ080>082-240500-
COASTAL MISSISSIPPI

CITY           SKY/WX    TMP DP  RH WIND       PRES   REMARKS
BILOXI         PTCLDY    74  70  88 CALM      29.73R
PASCAGOULA     MOCLDY    73  69  87 W3        29.72R
GULFPORT       CLEAR     73  70  90 CALM      29.73R
$$

LAZ007>009-015>016-023>026-240500-
NORTHEAST LOUISIANA

CITY           SKY/WX    TMP DP  RH WIND       PRES   REMARKS
BASTROP        RAIN      64  63  98 W6        29.74F
TALLULAH/VBURG LGT RAIN  65  60  84 NW10G18   29.76R
VIDALIA        CLOUDY    69  65  88 W9        29.76R
$$




USA.gov is the U.S. government's official web portal to all federal, state and local government web resources and services.